sat.trackr.live / text

‹ back to catalog

HAWK-14B

NORAD 68436 · 2026-067W

PAYLOAD ACTIVE UNKNOWN

§ Identity

Operator
Country
US
Launch date
2026-03-30
Launch site
AFWTR
Launch vehicle
Mass (kg)
RCS (m²)

External: N2YO · Heavens-Above · Gunter

§ Orbital elements

Epoch: 2026-09-20T04:02:20.281920Z

Period
94.81 min
Inclination
97.4655°
Eccentricity
0.0004416
Mean motion
15.18879628 rev/d
Perigee alt
506.2 km
Apogee alt
512.3 km
Semi-major
6,887.4 km
B*
1.5131e-4
RAAN
220.3454°
Arg perigee
81.1138°
Mean anomaly
279.0596°
Rev number
2,635

§ Raw data

HAWK-14B1 68436U 26067W   26263.16829030  .00003087  00000+0  15131-3 0  99972 68436  97.4655 220.3454 0004416  81.1138 279.0596 15.18879628 26351

JSON: /api/v1/satellites/68436 · /tle

For live sub-satellite position, see the globe view (requires WebGL).

§ Visibility from observer

Set your observer location to see the next 7 days of passes ≥ 10°. The values pass through the URL so the page stays shareable.

No JS? Fill the form by hand. The geolocation button needs JavaScript.